AAL2497 KDCA-KPBI

Flight info

Callsign AAL2497
Flight time 2h 2m
Altitude 36000
Route SCOOB EARZZ Q131 WAALT Y289 DULEE CLMNT2
Aircraft A321/M-SDE3FGHIRWY/LB1

Departure

Time 2026-05-05 19:55
Airport Ronald Reagan Washington National Airport (KDCA)

Arrival

Time 2026-05-05 21:57
Airport Palm Beach International Airport (KPBI)
Time Latitude Longitude Altitude Speed Heading
2026-05-05 18:55 38.85575 -77.04170 24 ft 0 kts 334°
2026-05-05 19:41 38.85573 -77.04169 24 ft 2 kts 334°
2026-05-05 19:41 38.85551 -77.04153 24 ft 3 kts 328°
2026-05-05 19:42 38.85534 -77.04141 26 ft 4 kts
2026-05-05 19:42 38.85522 -77.04153 24 ft 3 kts 72°
2026-05-05 19:42 38.85515 -77.04180 24 ft 0 kts 72°
2026-05-05 19:48 38.85517 -77.04172 24 ft 3 kts 72°
2026-05-05 19:48 38.85529 -77.04122 24 ft 7 kts 72°
2026-05-05 19:48 38.85545 -77.04057 24 ft 8 kts 72°
2026-05-05 19:48 38.85568 -77.03986 25 ft 9 kts 50°
2026-05-05 19:49 38.85603 -77.03968 24 ft 0 kts
2026-05-05 19:49 38.85610 -77.03966 24 ft 3 kts
2026-05-05 19:50 38.85654 -77.03967 25 ft 10 kts 357°
2026-05-05 19:50 38.85740 -77.03976 26 ft 15 kts 355°
2026-05-05 19:50 38.85869 -77.03989 25 ft 22 kts 355°
2026-05-05 19:50 38.85981 -77.03964 24 ft 8 kts 15°
2026-05-05 19:51 38.85985 -77.03963 24 ft 0 kts 15°
2026-05-05 19:53 38.85986 -77.03963 25 ft 1 kts 15°
2026-05-05 19:53 38.86024 -77.03960 24 ft 10 kts
2026-05-05 19:54 38.86081 -77.03923 23 ft 13 kts 38°
2026-05-05 19:54 38.86072 -77.03867 23 ft 6 kts 171°
2026-05-05 19:54 38.85921 -77.03852 27 ft 54 kts 176°
2026-05-05 19:54 38.85305 -77.03791 23 ft 122 kts 176°
2026-05-05 19:55 38.84275 -77.03712 165 ft 162 kts 176°
2026-05-05 19:55 38.83157 -77.03556 851 ft 165 kts 173°
2026-05-05 19:55 38.82031 -77.03322 1627 ft 163 kts 173°
2026-05-05 19:55 38.81278 -77.03159 2012 ft 169 kts 173°
2026-05-05 19:56 38.80056 -77.02897 2265 ft 189 kts 174°
2026-05-05 19:56 38.78681 -77.02601 2430 ft 212 kts 174°
2026-05-05 19:56 38.77153 -77.02270 2746 ft 229 kts 174°
2026-05-05 19:56 38.75586 -77.01890 3527 ft 230 kts 168°
2026-05-05 19:57 38.74101 -77.00914 3977 ft 254 kts 152°
2026-05-05 19:57 38.72605 -76.99611 4562 ft 264 kts 150°
2026-05-05 19:57 38.71086 -76.98249 5291 ft 268 kts 150°
2026-05-05 19:57 38.69554 -76.96867 6013 ft 272 kts 150°
2026-05-05 19:58 38.67999 -76.95465 6691 ft 275 kts 150°
2026-05-05 19:58 38.66416 -76.94047 7363 ft 279 kts 150°
2026-05-05 19:58 38.64817 -76.92619 8049 ft 281 kts 151°
2026-05-05 19:58 38.63199 -76.91185 8701 ft 285 kts 150°
2026-05-05 19:59 38.61561 -76.89741 9344 ft 288 kts 151°
2026-05-05 19:59 38.59903 -76.88282 9983 ft 291 kts 151°
2026-05-05 19:59 38.58199 -76.86785 10335 ft 306 kts 152°
2026-05-05 19:59 38.56405 -76.85218 10467 ft 327 kts 152°
2026-05-05 20:00 38.54480 -76.83539 10741 ft 341 kts 151°
2026-05-05 20:00 38.52510 -76.81790 11277 ft 347 kts 150°
2026-05-05 20:00 38.50520 -76.80000 11861 ft 351 kts 151°
2026-05-05 20:00 38.48515 -76.78188 12433 ft 355 kts 151°
2026-05-05 20:01 38.46461 -76.76340 13006 ft 358 kts 151°
2026-05-05 20:01 38.44443 -76.74530 13542 ft 361 kts 150°
2026-05-05 20:01 38.42330 -76.72776 14043 ft 362 kts 158°
2026-05-05 20:01 38.40028 -76.71525 14574 ft 359 kts 168°
2026-05-05 20:02 38.37599 -76.70848 15072 ft 356 kts 178°
2026-05-05 20:02 38.35093 -76.70459 15581 ft 360 kts 178°
2026-05-05 20:02 38.32594 -76.70066 16074 ft 364 kts 178°
2026-05-05 20:02 38.30062 -76.69660 16557 ft 368 kts 178°
2026-05-05 20:03 38.27547 -76.69253 17023 ft 372 kts 178°
2026-05-05 20:03 38.24971 -76.68836 17481 ft 375 kts 178°
2026-05-05 20:03 38.22366 -76.68414 17908 ft 379 kts 178°
2026-05-05 20:03 38.19698 -76.67983 18351 ft 383 kts 177°
2026-05-05 20:04 38.17076 -76.67562 18793 ft 386 kts 177°
2026-05-05 20:04 38.14407 -76.67133 19240 ft 389 kts 177°
2026-05-05 20:04 38.11681 -76.66695 19684 ft 392 kts 177°
2026-05-05 20:04 38.09000 -76.66289 20106 ft 393 kts 178°
2026-05-05 20:05 38.06231 -76.66002 20532 ft 395 kts 180°
2026-05-05 20:05 38.03483 -76.65820 20951 ft 397 kts 181°
2026-05-05 20:05 38.00717 -76.65685 21351 ft 399 kts 181°
2026-05-05 20:05 37.97931 -76.65557 21749 ft 402 kts 181°
2026-05-05 20:06 37.95131 -76.65413 22137 ft 404 kts 181°
2026-05-05 20:06 37.92342 -76.65247 22493 ft 407 kts 180°
2026-05-05 20:06 37.89505 -76.65063 22850 ft 409 kts 180°
2026-05-05 20:06 37.86615 -76.64867 23208 ft 412 kts 180°
2026-05-05 20:07 37.83780 -76.64673 23561 ft 414 kts 180°
2026-05-05 20:07 37.80897 -76.64477 23912 ft 416 kts 179°
2026-05-05 20:07 37.77991 -76.64279 24255 ft 418 kts 179°
2026-05-05 20:07 37.75071 -76.64082 24571 ft 421 kts 180°
2026-05-05 20:08 37.72125 -76.63886 24894 ft 424 kts 180°
2026-05-05 20:08 37.69170 -76.63691 25213 ft 427 kts 180°
2026-05-05 20:08 37.66191 -76.63492 25514 ft 429 kts 180°
2026-05-05 20:08 37.63197 -76.63294 25822 ft 432 kts 180°
2026-05-05 20:09 37.60185 -76.63107 26118 ft 434 kts 182°
2026-05-05 20:09 37.57169 -76.63301 26397 ft 434 kts 189°
2026-05-05 20:09 37.54189 -76.63718 26680 ft 436 kts 189°
2026-05-05 20:09 37.51166 -76.64136 26972 ft 438 kts 189°
2026-05-05 20:10 37.48124 -76.64553 27248 ft 441 kts 189°
2026-05-05 20:10 37.45066 -76.64972 27512 ft 443 kts 189°
2026-05-05 20:10 37.41954 -76.65396 27784 ft 445 kts 189°
2026-05-05 20:10 37.38865 -76.65817 28052 ft 447 kts 189°
2026-05-05 20:11 37.35763 -76.66238 28306 ft 450 kts 189°
2026-05-05 20:11 37.32645 -76.66664 28561 ft 452 kts 189°
2026-05-05 20:11 37.29509 -76.67096 28817 ft 454 kts 189°
2026-05-05 20:11 37.26366 -76.67526 29073 ft 456 kts 189°
2026-05-05 20:12 37.23198 -76.67958 29314 ft 458 kts 189°
2026-05-05 20:12 37.20029 -76.68388 29554 ft 460 kts 189°
2026-05-05 20:12 37.16835 -76.68819 29797 ft 462 kts 189°
2026-05-05 20:12 37.13631 -76.69251 30020 ft 463 kts 189°
2026-05-05 20:13 37.10419 -76.69688 30234 ft 465 kts 189°
2026-05-05 20:13 37.07230 -76.70124 30436 ft 467 kts 189°
2026-05-05 20:13 37.03993 -76.70563 30636 ft 468 kts 189°
2026-05-05 20:13 37.00749 -76.70998 30814 ft 470 kts 189°
2026-05-05 20:14 36.97499 -76.71431 31073 ft 470 kts 189°
2026-05-05 20:14 36.94248 -76.71863 31329 ft 469 kts 189°
2026-05-05 20:14 36.90998 -76.72300 31580 ft 469 kts 190°
2026-05-05 20:14 36.87747 -76.72740 31821 ft 469 kts 190°
2026-05-05 20:15 36.84523 -76.73175 32058 ft 469 kts 190°
2026-05-05 20:15 36.81277 -76.73612 32293 ft 469 kts 190°
2026-05-05 20:15 36.78028 -76.74047 32534 ft 469 kts 190°
2026-05-05 20:15 36.74787 -76.74482 32764 ft 469 kts 190°
2026-05-05 20:16 36.71539 -76.74918 32989 ft 469 kts 190°
2026-05-05 20:16 36.68292 -76.75350 33205 ft 469 kts 191°
2026-05-05 20:16 36.65035 -76.75785 33418 ft 469 kts 191°
2026-05-05 20:16 36.61788 -76.76222 33626 ft 470 kts 191°
2026-05-05 20:17 36.58540 -76.76662 33849 ft 469 kts 191°
2026-05-05 20:17 36.55292 -76.77102 34071 ft 469 kts 191°
2026-05-05 20:17 36.52047 -76.77536 34281 ft 469 kts 191°
2026-05-05 20:17 36.48802 -76.77968 34494 ft 469 kts 191°
2026-05-05 20:18 36.45558 -76.78398 34706 ft 468 kts 191°
2026-05-05 20:18 36.42316 -76.78829 34914 ft 468 kts 191°
2026-05-05 20:18 36.39075 -76.79262 35108 ft 468 kts 191°
2026-05-05 20:18 36.35838 -76.79693 35314 ft 468 kts 191°
2026-05-05 20:19 36.32602 -76.80123 35529 ft 467 kts 191°
2026-05-05 20:19 36.29369 -76.80550 35730 ft 467 kts 191°
2026-05-05 20:19 36.26140 -76.80975 35920 ft 467 kts 191°
2026-05-05 20:19 36.22902 -76.81404 36034 ft 467 kts 191°
2026-05-05 20:20 36.19675 -76.81831 36059 ft 465 kts 191°
2026-05-05 20:20 36.13282 -76.82677 36063 ft 464 kts 191°
2026-05-05 20:21 36.06852 -76.83526 36065 ft 464 kts 191°
2026-05-05 20:21 36.00419 -76.84374 36061 ft 464 kts 191°
2026-05-05 20:22 35.94118 -76.85226 36063 ft 463 kts 194°
2026-05-05 20:22 35.88042 -76.87497 36063 ft 451 kts 212°
2026-05-05 20:23 35.82477 -76.90947 36072 ft 451 kts 212°
2026-05-05 20:23 35.76852 -76.94403 36075 ft 452 kts 212°
2026-05-05 20:24 35.71206 -76.97861 36087 ft 453 kts 212°
2026-05-05 20:24 35.65552 -77.01323 36093 ft 454 kts 212°
2026-05-05 20:25 35.59882 -77.04791 36107 ft 455 kts 212°
2026-05-05 20:25 35.54200 -77.08273 36109 ft 456 kts 213°
2026-05-05 20:26 35.48520 -77.11747 36112 ft 456 kts 213°
2026-05-05 20:26 35.42832 -77.15223 36111 ft 457 kts 212°
2026-05-05 20:27 35.37123 -77.18690 36115 ft 457 kts 213°
2026-05-05 20:27 35.31416 -77.22165 36117 ft 458 kts 213°
2026-05-05 20:28 35.25697 -77.25644 36119 ft 459 kts 213°
2026-05-05 20:28 35.19971 -77.29108 36116 ft 459 kts 213°
2026-05-05 20:29 35.14241 -77.32572 36116 ft 460 kts 213°
2026-05-05 20:29 35.09462 -77.35464 36122 ft 461 kts 213°
2026-05-05 20:30 35.03706 -77.38942 36130 ft 461 kts 213°
2026-05-05 20:30 34.97945 -77.42409 36135 ft 462 kts 213°
2026-05-05 20:31 34.92171 -77.45881 36131 ft 462 kts 213°
2026-05-05 20:31 34.86424 -77.49330 36133 ft 463 kts 213°
2026-05-05 20:32 34.80634 -77.52802 36125 ft 463 kts 213°
2026-05-05 20:32 34.74839 -77.56271 36116 ft 465 kts 213°
2026-05-05 20:33 34.69030 -77.59743 36122 ft 465 kts 213°
2026-05-05 20:33 34.63201 -77.63222 36123 ft 467 kts 213°
2026-05-05 20:34 34.57347 -77.66655 36120 ft 471 kts 209°
2026-05-05 20:34 34.50941 -77.68784 36118 ft 482 kts 198°
2026-05-05 20:35 34.44367 -77.70437 36122 ft 483 kts 198°
2026-05-05 20:35 34.37770 -77.72107 36121 ft 485 kts 198°
2026-05-05 20:36 34.31154 -77.73788 36128 ft 485 kts 198°
2026-05-05 20:36 34.24527 -77.75481 36115 ft 487 kts 198°
2026-05-05 20:37 34.17936 -77.77166 36122 ft 487 kts 198°
2026-05-05 20:37 34.11300 -77.78840 36124 ft 489 kts 198°
2026-05-05 20:38 34.04637 -77.80510 36132 ft 488 kts 198°
2026-05-05 20:38 33.97964 -77.82189 36139 ft 490 kts 198°
2026-05-05 20:39 33.91272 -77.83884 36129 ft 490 kts 198°
2026-05-05 20:39 33.84595 -77.85570 36129 ft 489 kts 198°
2026-05-05 20:40 33.77938 -77.87260 36143 ft 487 kts 200°
2026-05-05 20:40 33.71408 -77.89357 36134 ft 484 kts 203°
2026-05-05 20:41 33.64996 -77.91678 36132 ft 483 kts 203°
2026-05-05 20:41 33.58535 -77.93981 36147 ft 485 kts 203°
2026-05-05 20:42 33.52023 -77.96186 36147 ft 486 kts 202°
2026-05-05 20:42 33.45493 -77.98356 36144 ft 486 kts 202°
2026-05-05 20:43 33.38982 -78.00541 36145 ft 484 kts 202°
2026-05-05 20:43 33.32494 -78.02734 36143 ft 484 kts 203°
2026-05-05 20:44 33.26056 -78.04901 36135 ft 484 kts 203°
2026-05-05 20:44 33.19551 -78.07087 36133 ft 485 kts 203°
2026-05-05 20:45 33.09779 -78.10358 36142 ft 486 kts 203°
2026-05-05 20:45 33.03304 -78.12519 36144 ft 486 kts 204°
2026-05-05 20:46 32.96789 -78.14707 36145 ft 485 kts 204°
2026-05-05 20:46 32.90280 -78.16892 36143 ft 486 kts 204°
2026-05-05 20:47 32.83806 -78.19038 36149 ft 485 kts 204°
2026-05-05 20:47 32.77298 -78.21196 36153 ft 485 kts 204°
2026-05-05 20:48 32.70788 -78.23354 36152 ft 485 kts 204°
2026-05-05 20:48 32.64280 -78.25511 36154 ft 485 kts 204°
2026-05-05 20:49 32.57830 -78.27655 36157 ft 484 kts 204°
2026-05-05 20:49 32.51338 -78.29807 36152 ft 484 kts 204°
2026-05-05 20:50 32.44834 -78.31945 36148 ft 483 kts 204°
2026-05-05 20:50 32.38349 -78.34075 36146 ft 483 kts 204°
2026-05-05 20:51 32.31907 -78.36197 36146 ft 483 kts 204°
2026-05-05 20:51 32.25431 -78.38330 36144 ft 483 kts 204°
2026-05-05 20:52 32.18985 -78.40446 36134 ft 483 kts 204°
2026-05-05 20:52 32.12506 -78.42574 36139 ft 483 kts 204°
2026-05-05 20:53 32.06030 -78.44692 36139 ft 483 kts 204°
2026-05-05 20:53 31.99545 -78.46809 36137 ft 483 kts 204°
2026-05-05 20:54 31.93064 -78.48913 36138 ft 483 kts 204°
2026-05-05 20:54 31.86622 -78.51000 36134 ft 483 kts 204°
2026-05-05 20:55 31.80147 -78.53109 36122 ft 482 kts 204°
2026-05-05 20:55 31.73678 -78.55227 36121 ft 483 kts 204°
2026-05-05 20:56 31.67199 -78.57328 36124 ft 483 kts 204°
2026-05-05 20:56 31.60753 -78.59407 36120 ft 483 kts 204°
2026-05-05 20:57 31.54267 -78.61498 36121 ft 483 kts 204°
2026-05-05 20:57 31.47799 -78.63661 36126 ft 482 kts 206°
2026-05-05 20:58 31.41361 -78.65896 36125 ft 482 kts 206°
2026-05-05 20:58 31.34957 -78.68123 36119 ft 483 kts 206°
2026-05-05 20:59 31.28495 -78.70334 36122 ft 483 kts 206°
2026-05-05 20:59 31.22079 -78.72513 36117 ft 483 kts 206°
2026-05-05 21:00 31.15620 -78.74716 36125 ft 483 kts 206°
2026-05-05 21:00 31.09162 -78.76915 36123 ft 483 kts 206°
2026-05-05 21:01 31.02739 -78.79098 36128 ft 483 kts 206°
2026-05-05 21:01 30.96276 -78.81292 36135 ft 483 kts 206°
2026-05-05 21:02 30.89810 -78.83485 36136 ft 483 kts 206°
2026-05-05 21:02 30.83401 -78.85659 36129 ft 483 kts 206°
2026-05-05 21:03 30.76943 -78.87838 36131 ft 483 kts 206°
2026-05-05 21:03 30.70489 -78.90008 36135 ft 482 kts 206°
2026-05-05 21:04 30.64119 -78.92139 36101 ft 472 kts 206°
2026-05-05 21:04 30.57819 -78.94253 36097 ft 470 kts 206°
2026-05-05 21:05 30.51545 -78.96359 36100 ft 469 kts 206°
2026-05-05 21:05 30.45265 -78.98467 36100 ft 469 kts 206°
2026-05-05 21:06 30.38958 -79.00491 36105 ft 473 kts 204°
2026-05-05 21:06 30.32515 -79.02183 36106 ft 476 kts 202°
2026-05-05 21:07 30.26026 -79.03755 36105 ft 476 kts 202°
2026-05-05 21:07 30.19558 -79.05392 36105 ft 475 kts 203°
2026-05-05 21:08 30.13116 -79.07097 36104 ft 474 kts 203°
2026-05-05 21:08 30.06685 -79.08803 36102 ft 474 kts 203°
2026-05-05 21:09 30.00240 -79.10487 36105 ft 475 kts 203°
2026-05-05 21:09 29.93791 -79.12154 36107 ft 475 kts 203°
2026-05-05 21:10 29.87352 -79.13822 36104 ft 474 kts 203°
2026-05-05 21:10 29.80915 -79.15493 36095 ft 474 kts 202°
2026-05-05 21:11 29.74475 -79.17137 36089 ft 474 kts 202°
2026-05-05 21:11 29.68036 -79.18776 36089 ft 474 kts 202°
2026-05-05 21:12 29.61592 -79.20416 36089 ft 474 kts 202°
2026-05-05 21:12 29.55154 -79.22054 36088 ft 474 kts 202°
2026-05-05 21:13 29.48720 -79.23691 36086 ft 473 kts 202°
2026-05-05 21:13 29.42281 -79.25317 36087 ft 473 kts 202°
2026-05-05 21:14 29.35852 -79.26944 36086 ft 473 kts 202°
2026-05-05 21:14 29.30462 -79.28314 36084 ft 473 kts 202°
2026-05-05 21:15 29.24028 -79.29939 36082 ft 474 kts 202°
2026-05-05 21:15 29.17582 -79.31567 36079 ft 474 kts 202°
2026-05-05 21:16 29.11141 -79.33189 36082 ft 474 kts 202°
2026-05-05 21:16 29.04691 -79.34822 36079 ft 475 kts 202°
2026-05-05 21:17 28.98232 -79.36447 36078 ft 475 kts 202°
2026-05-05 21:17 28.91775 -79.38058 36077 ft 475 kts 202°
2026-05-05 21:18 28.85323 -79.39673 35782 ft 474 kts 202°
2026-05-05 21:18 28.82107 -79.40482 35532 ft 472 kts 202°
2026-05-05 21:18 28.78903 -79.41289 35283 ft 471 kts 202°
2026-05-05 21:19 28.75709 -79.42090 35031 ft 469 kts 202°
2026-05-05 21:19 28.72526 -79.42885 34778 ft 467 kts 202°
2026-05-05 21:19 28.69351 -79.43679 34530 ft 465 kts 202°
2026-05-05 21:19 28.66200 -79.44464 34241 ft 462 kts 202°
2026-05-05 21:20 28.63060 -79.45247 33722 ft 460 kts 201°
2026-05-05 21:20 28.59979 -79.46015 33221 ft 457 kts 201°
2026-05-05 21:20 28.56877 -79.46786 32702 ft 454 kts 201°
2026-05-05 21:20 28.53795 -79.47551 32196 ft 451 kts 201°
2026-05-05 21:21 28.50742 -79.48309 31694 ft 447 kts 200°
2026-05-05 21:21 28.47710 -79.49061 31197 ft 444 kts 200°
2026-05-05 21:21 28.44702 -79.49808 30704 ft 441 kts 200°
2026-05-05 21:21 28.41718 -79.50550 30223 ft 437 kts 200°
2026-05-05 21:22 28.38767 -79.51287 29751 ft 432 kts 199°
2026-05-05 21:22 28.35841 -79.52016 29287 ft 428 kts 200°
2026-05-05 21:22 28.32954 -79.52733 28842 ft 423 kts 199°
2026-05-05 21:22 28.30097 -79.53443 28468 ft 417 kts 200°
2026-05-05 21:23 28.27287 -79.54168 28082 ft 410 kts 200°
2026-05-05 21:23 28.24535 -79.54911 27707 ft 404 kts 201°
2026-05-05 21:23 28.21821 -79.55662 27342 ft 398 kts 201°
2026-05-05 21:23 28.19150 -79.56405 26987 ft 392 kts 201°
2026-05-05 21:24 28.16525 -79.57136 26636 ft 386 kts 201°
2026-05-05 21:24 28.13934 -79.57849 26285 ft 381 kts 201°
2026-05-05 21:24 28.11375 -79.58543 25939 ft 375 kts 201°
2026-05-05 21:24 28.08851 -79.59224 25582 ft 370 kts 201°
2026-05-05 21:25 28.06370 -79.59895 25233 ft 365 kts 201°
2026-05-05 21:25 28.03918 -79.60557 24884 ft 360 kts 201°
2026-05-05 21:25 28.01496 -79.61212 24540 ft 355 kts 201°
2026-05-05 21:25 27.99100 -79.61864 24194 ft 354 kts 201°
2026-05-05 21:26 27.96708 -79.62517 23798 ft 360 kts 201°
2026-05-05 21:26 27.94227 -79.63207 23310 ft 371 kts 201°
2026-05-05 21:26 27.91708 -79.63901 22829 ft 372 kts 200°
2026-05-05 21:26 27.89198 -79.64583 22353 ft 370 kts 200°
2026-05-05 21:27 27.86706 -79.65257 21882 ft 368 kts 200°
2026-05-05 21:27 27.84218 -79.65926 21406 ft 366 kts 199°
2026-05-05 21:27 27.81750 -79.66590 20944 ft 363 kts 199°
2026-05-05 21:27 27.79299 -79.67249 20478 ft 361 kts 199°
2026-05-05 21:28 27.76866 -79.67903 20017 ft 358 kts 199°
2026-05-05 21:28 27.74448 -79.68553 19558 ft 356 kts 199°
2026-05-05 21:28 27.72051 -79.69198 19101 ft 353 kts 198°
2026-05-05 21:28 27.69666 -79.69836 18653 ft 351 kts 198°
2026-05-05 21:29 27.67299 -79.70472 18227 ft 348 kts 198°
2026-05-05 21:29 27.64945 -79.71107 17736 ft 348 kts 198°
2026-05-05 21:29 27.62597 -79.71741 17275 ft 346 kts 198°
2026-05-05 21:29 27.60265 -79.72371 16827 ft 343 kts 197°
2026-05-05 21:30 27.57957 -79.72994 16399 ft 339 kts 197°
2026-05-05 21:30 27.55673 -79.73612 15965 ft 336 kts 197°
2026-05-05 21:30 27.53408 -79.74223 15528 ft 333 kts 197°
2026-05-05 21:30 27.51165 -79.74822 15102 ft 330 kts 197°
2026-05-05 21:31 27.48944 -79.75415 14684 ft 326 kts 197°
2026-05-05 21:31 27.46746 -79.76003 14269 ft 323 kts 197°
2026-05-05 21:31 27.44575 -79.76587 13856 ft 319 kts 197°
2026-05-05 21:31 27.42426 -79.77164 13447 ft 316 kts 196°
2026-05-05 21:32 27.40301 -79.77735 13035 ft 312 kts 196°
2026-05-05 21:32 27.38192 -79.78303 12644 ft 309 kts 196°
2026-05-05 21:32 27.36113 -79.78860 12250 ft 306 kts 196°
2026-05-05 21:32 27.34048 -79.79412 11859 ft 303 kts 196°
2026-05-05 21:33 27.32008 -79.79961 11484 ft 300 kts 195°
2026-05-05 21:33 27.29986 -79.80505 11105 ft 297 kts 195°
2026-05-05 21:33 27.27985 -79.81040 10720 ft 295 kts 195°
2026-05-05 21:33 27.25995 -79.81570 10334 ft 292 kts 195°
2026-05-05 21:34 27.24028 -79.82097 9963 ft 289 kts 195°
2026-05-05 21:34 27.22078 -79.82622 9593 ft 287 kts 195°
2026-05-05 21:34 27.20211 -79.83372 9224 ft 285 kts 207°
2026-05-05 21:34 27.18462 -79.84417 8859 ft 285 kts 208°
2026-05-05 21:35 27.16716 -79.85464 8492 ft 283 kts 208°
2026-05-05 21:35 27.14982 -79.86498 8133 ft 282 kts 208°
2026-05-05 21:35 27.13247 -79.87529 7761 ft 281 kts 208°
2026-05-05 21:35 27.11525 -79.88549 7399 ft 279 kts 208°
2026-05-05 21:36 27.09813 -79.89563 7049 ft 277 kts 208°
2026-05-05 21:36 27.08114 -79.90573 6697 ft 276 kts 208°
2026-05-05 21:36 27.06422 -79.91578 6341 ft 274 kts 208°
2026-05-05 21:36 27.04741 -79.92576 5988 ft 274 kts 208°
2026-05-05 21:37 27.03058 -79.93581 5638 ft 273 kts 208°
2026-05-05 21:37 27.01380 -79.94574 5284 ft 272 kts 207°
2026-05-05 21:37 26.99713 -79.95561 4938 ft 270 kts 208°
2026-05-05 21:37 26.98060 -79.96545 4592 ft 269 kts 207°
2026-05-05 21:38 26.97072 -79.97131 4356 ft 269 kts 208°
2026-05-05 21:38 26.95432 -79.98123 4061 ft 268 kts 211°
2026-05-05 21:38 26.93925 -79.99359 3992 ft 269 kts 217°
2026-05-05 21:38 26.92435 -80.00639 3997 ft 270 kts 218°
2026-05-05 21:39 26.90938 -80.01923 4014 ft 271 kts 218°
2026-05-05 21:39 26.89444 -80.03206 4008 ft 271 kts 218°
2026-05-05 21:39 26.87952 -80.04488 3995 ft 270 kts 217°
2026-05-05 21:39 26.86460 -80.05773 3997 ft 271 kts 218°
2026-05-05 21:40 26.84988 -80.07043 4007 ft 259 kts 218°
2026-05-05 21:40 26.83603 -80.08237 4010 ft 243 kts 218°
2026-05-05 21:40 26.82316 -80.09357 4015 ft 226 kts 218°
2026-05-05 21:40 26.81248 -80.10572 4012 ft 211 kts 236°
2026-05-05 21:41 26.80656 -80.11960 4006 ft 188 kts 254°
2026-05-05 21:41 26.80471 -80.13330 3985 ft 170 kts 266°
2026-05-05 21:41 26.80390 -80.14618 3996 ft 165 kts 265°
2026-05-05 21:41 26.80296 -80.15891 3991 ft 164 kts 265°
2026-05-05 21:42 26.80194 -80.17188 4020 ft 179 kts 265°
2026-05-05 21:42 26.80071 -80.18640 4014 ft 192 kts 264°
2026-05-05 21:42 26.80076 -80.20134 4005 ft 194 kts 285°
2026-05-05 21:42 26.80587 -80.21539 4000 ft 195 kts 295°
2026-05-05 21:43 26.81198 -80.22886 4001 ft 195 kts 297°
2026-05-05 21:43 26.81805 -80.24193 3998 ft 179 kts 297°
2026-05-05 21:43 26.82357 -80.25372 3988 ft 166 kts 298°
2026-05-05 21:43 26.82891 -80.26512 3997 ft 166 kts 298°
2026-05-05 21:44 26.83417 -80.27646 4005 ft 163 kts 297°
2026-05-05 21:44 26.83942 -80.28784 3992 ft 164 kts 298°
2026-05-05 21:44 26.84466 -80.29919 3996 ft 165 kts 298°
2026-05-05 21:44 26.84989 -80.31064 4003 ft 165 kts 297°
2026-05-05 21:45 26.85512 -80.32201 3998 ft 165 kts 298°
2026-05-05 21:45 26.86039 -80.33338 3995 ft 164 kts 297°
2026-05-05 21:45 26.86562 -80.34469 4007 ft 165 kts 297°
2026-05-05 21:45 26.87095 -80.35610 3993 ft 165 kts 298°
2026-05-05 21:46 26.87624 -80.36741 3989 ft 164 kts 297°
2026-05-05 21:46 26.88150 -80.37873 4003 ft 165 kts 297°
2026-05-05 21:46 26.88583 -80.39063 4001 ft 164 kts 284°
2026-05-05 21:46 26.88789 -80.40317 3997 ft 165 kts 278°
2026-05-05 21:47 26.88944 -80.41585 4001 ft 163 kts 278°
2026-05-05 21:47 26.89091 -80.42861 4005 ft 166 kts 277°
2026-05-05 21:47 26.89121 -80.44138 4001 ft 165 kts 252°
2026-05-05 21:47 26.88442 -80.45123 4005 ft 164 kts 209°
2026-05-05 21:48 26.87373 -80.45584 4009 ft 164 kts 195°
2026-05-05 21:48 26.86269 -80.45898 4004 ft 164 kts 193°
2026-05-05 21:48 26.85145 -80.45889 3995 ft 164 kts 162°
2026-05-05 21:48 26.84232 -80.45159 3835 ft 162 kts 124°
2026-05-05 21:49 26.83602 -80.44111 3759 ft 162 kts 125°
2026-05-05 21:49 26.82934 -80.43091 3722 ft 162 kts 125°
2026-05-05 21:49 26.82488 -80.42421 3702 ft 162 kts 126°
2026-05-05 21:49 26.81583 -80.41067 3652 ft 163 kts 126°
2026-05-05 21:50 26.80909 -80.40050 3616 ft 162 kts 126°
2026-05-05 21:50 26.80464 -80.39377 3589 ft 162 kts 126°
2026-05-05 21:50 26.79790 -80.38362 3550 ft 162 kts 127°
2026-05-05 21:50 26.78896 -80.37021 3510 ft 162 kts 126°
2026-05-05 21:51 26.78439 -80.36336 3479 ft 163 kts 126°
2026-05-05 21:51 26.77768 -80.35324 3441 ft 162 kts 127°
2026-05-05 21:51 26.77095 -80.34308 3406 ft 162 kts 126°
2026-05-05 21:51 26.76423 -80.33295 3369 ft 162 kts 126°
2026-05-05 21:52 26.75090 -80.31281 3296 ft 162 kts 126°
2026-05-05 21:52 26.74421 -80.30268 3259 ft 162 kts 126°
2026-05-05 21:52 26.73755 -80.29258 3220 ft 161 kts 126°
2026-05-05 21:53 26.73092 -80.28251 3202 ft 160 kts 126°
2026-05-05 21:53 26.72425 -80.27242 3086 ft 161 kts 126°
2026-05-05 21:53 26.71759 -80.26234 2908 ft 160 kts 125°
2026-05-05 21:53 26.71101 -80.25236 2724 ft 160 kts 125°
2026-05-05 21:54 26.70448 -80.24244 2509 ft 155 kts 125°
2026-05-05 21:54 26.69817 -80.23286 2312 ft 151 kts 124°
2026-05-05 21:54 26.69195 -80.22346 2125 ft 149 kts 123°
2026-05-05 21:54 26.68796 -80.21297 1928 ft 146 kts 98°
2026-05-05 21:55 26.68721 -80.20180 1737 ft 144 kts 90°
2026-05-05 21:55 26.68673 -80.19066 1542 ft 143 kts 90°
2026-05-05 21:55 26.68626 -80.17967 1360 ft 141 kts 90°
2026-05-05 21:55 26.68579 -80.16871 1172 ft 140 kts 90°
2026-05-05 21:56 26.68532 -80.15782 950 ft 140 kts 90°
2026-05-05 21:56 26.68486 -80.14700 751 ft 139 kts 90°
2026-05-05 21:56 26.68439 -80.13619 584 ft 139 kts 90°
2026-05-05 21:56 26.68395 -80.12539 407 ft 139 kts 89°
2026-05-05 21:57 26.68346 -80.11460 240 ft 139 kts 90°
2026-05-05 21:57 26.68301 -80.10373 55 ft 140 kts 91°
2026-05-05 21:57 26.68263 -80.09441 26 ft 81 kts 93°
2026-05-05 21:57 26.68250 -80.09151 26 ft 1 kts 93°
2026-05-05 21:58 26.68248 -80.09106 26 ft 13 kts 94°
2026-05-05 21:58 26.68240 -80.08957 26 ft 22 kts 93°
2026-05-05 21:58 26.68293 -80.08850 26 ft 15 kts 17°
2026-05-05 21:58 26.68344 -80.08900 26 ft 10 kts 279°
2026-05-05 21:59 26.68348 -80.08970 26 ft 8 kts 269°
2026-05-05 21:59 26.68351 -80.09020 26 ft 4 kts 274°
2026-05-05 21:59 26.68352 -80.09027 26 ft 1 kts 274°
2026-05-05 21:59 26.68353 -80.09043 26 ft 3 kts 274°
2026-05-05 22:00 26.68356 -80.09075 26 ft 5 kts 282°
2026-05-05 22:00 26.68387 -80.09097 26 ft 6 kts 351°
2026-05-05 22:00 26.68437 -80.09098 26 ft 8 kts
2026-05-05 22:00 26.68501 -80.09094 26 ft 10 kts
2026-05-05 22:01 26.68563 -80.09129 26 ft 12 kts 294°
2026-05-05 22:01 26.68589 -80.09214 26 ft 10 kts 292°
2026-05-05 22:01 26.68601 -80.09233 26 ft 0 kts 313°
2026-05-05 22:02 26.68608 -80.09240 26 ft 5 kts 317°
2026-05-05 22:02 26.68636 -80.09268 26 ft 4 kts 317°
2026-05-05 22:02 26.68649 -80.09282 26 ft 1 kts 317°
2026-05-05 22:02 26.68650 -80.09283 26 ft 0 kts 317°